Location: Bramevaque
(42.9773°N, 0.5757°E)
Time: 19:17:54
(UTC+00:00)

Cosmos 1725 Rocket - Pass Details

Date: 15 May 2026
Orbit: 960 x 991 km, 82.9° (Epoch: 7 June)

Event Time Altitude Azimuth Distance (km) Brightness Sun altitude
Rises 20:24:23 0° 195° (SSW) 3,675 6.8 -11.5°
Reaches altitude 10° 20:26:56 10° 199° (SSW) 2,727 6.1 -11.9°
Maximum altitude 20:33:08 64° 280° (W) 1,079 4.5 -12.7°
Drops below altitude 10° 20:39:19 10° 2° (N) 2,723 6.9 -13.6°
Sets 20:41:52 0° 5° (N) 3,670 7.6 -13.9°
